STARLINK-3400, 51128

Orbit data source: Space-Track

STARLINK-3400, 51128 is a payload satellite owned by SpaceX/Seattle (US) in LEO that was launched on Wed, 19 Jan 2022 UTC via an FALCON 9 launch vehicle from the Air Force Eastern Test Range (AFETR). Payload-class satellites include a variety of spacecraft equipped with specific instruments for various scientific and technological missions. These include communications satellites like Starlink; space stations such as the ISS; scientific satellites like the Hubble; Earth observation satellites from companies like Planet Labs, Umbra, and HawkEye 360; GPS; miniature CubeSats for education and research; and military/defense satellites.

Loading next visibility...
Identifier
51128, 2022-005AA
Orbit
LEO
Country
Flag of USUS
Related business
Manufacturer
SpaceX/Seattle
Mission
Operational Commercial Communications
Bus & Motor
STARLINK, Unknown motor
Mass
297 kg wet, ~275 kg dry
Launch date (UTC)
2022-01-19 (4 years ago)
Launch vehicle
FALCON 9
Launch site
Air Force Eastern Test Range (AFETR)
Object type
Payload
Rocket body
Debris
Shape & HBR
Box + 1 Pan, 10.1 m
Radar Cross Section
13.562 m², Large (>1 m²)

Expand to show TLE details & history
Last TLE update: 14 hours ago

TLE from 14 hours ago
0 STARLINK-3400
1 51128U 22005AA  26094.23732898  .00002783  00000-0  19275-3 0  9996
2 51128  53.2179 184.4313 0001026  92.2972 267.8138 15.08864805232580
Epoch: 2026-04-04T05:41Z
TLE epoch observation values (Epoch: 2026-04-04T05:41:45.223Z)
Latitude
-0.00002°
Longitude
-93.56713°
Altitude
540.592 km
Speed
7.593 km/s
True Right ascension
12h 17m 43s
True Declination
0° 00' 00"
Sunlit
Object was in full shadow at epoch
Visualization orbit readout
Latitude
Unknown
Longitude
Unknown
Altitude
Unknown
Speed
Unknown
Apparent Right ascension
Unknown
Apparent Declination
Unknown
Sunlit
N/A
Visualization observer readout
Local Sidereal Time
01:56:44
Azimuth
Unknown
Elevation
Unknown
Doppler factor
Unknown
Orbital elements
Apogee altitude
540.622 km
Perigee altitude
539.203 km
Semi-major axis
6,918.049 km
Eccentricity
0.0001
Inclination
53.2179°
RAAN
184.4313°
Arg. of periapsis
92.2972°
True anomaly
267.80205°
Mean anomaly
267.8138°
Eccentric anomaly
267.80793°
Mean motion
3.77197 °/min
Orbital period
95.44 mins
BSTAR
0.00019275
Loading maneuver chart data...
Computing Atmospheric mass density...
Loading historical data...
Loading historical data...
Loading historical data...
Loading historical data...
Loading historical data...
Loading historical data...
Loading historical data...

Documentation

Showing up to 5 results
|